BAW817 EKCH-EGLL

Flight info

Callsign BAW817
Flight time N/A
Altitude 36000
Route LANGO DCT RAXLU DCT JUIST DCT ABNED L980 LOGAN
Aircraft A320/M-L/LB1

Departure

Time N/A
Airport Copenhagen Kastrup Airport (EKCH)

Arrival

Time 2026-05-05 13:36
Airport London Heathrow Airport (EGLL)
Time Latitude Longitude Altitude Speed Heading
2026-05-05 12:15 54.73817 10.33006 35968 ft 400 kts 237°
2026-05-05 12:15 54.72236 10.29043 35964 ft 400 kts 237°
2026-05-05 12:16 54.69889 10.22152 35965 ft 399 kts 242°
2026-05-05 12:16 54.66750 10.12394 35967 ft 399 kts 242°
2026-05-05 12:17 54.64480 10.05385 35969 ft 399 kts 242°
2026-05-05 12:17 54.61763 9.97016 35969 ft 401 kts 242°
2026-05-05 12:18 54.59036 9.88632 35951 ft 400 kts 242°
2026-05-05 12:18 54.56313 9.80289 35953 ft 399 kts 241°
2026-05-05 12:19 54.53591 9.71971 35948 ft 399 kts 241°
2026-05-05 12:19 54.50872 9.63697 35947 ft 401 kts 241°
2026-05-05 12:20 54.48118 9.55343 35947 ft 401 kts 241°
2026-05-05 12:20 54.45360 9.47002 35946 ft 401 kts 241°
2026-05-05 12:21 54.42594 9.38669 35948 ft 402 kts 241°
2026-05-05 12:21 54.39818 9.30340 35956 ft 402 kts 241°
2026-05-05 12:22 54.37050 9.22052 35954 ft 399 kts 241°
2026-05-05 12:22 54.34279 9.13809 35950 ft 399 kts 241°
2026-05-05 12:23 54.31508 9.05574 35955 ft 400 kts 240°
2026-05-05 12:23 54.28715 8.97315 35951 ft 401 kts 240°
2026-05-05 12:24 54.25913 8.89058 35955 ft 401 kts 240°
2026-05-05 12:24 54.23108 8.80798 35952 ft 401 kts 240°
2026-05-05 12:25 54.20319 8.72617 35949 ft 401 kts 240°
2026-05-05 12:25 54.17504 8.64399 35948 ft 399 kts 240°
2026-05-05 12:26 54.14706 8.56243 35954 ft 397 kts 240°
2026-05-05 12:26 54.11907 8.48110 35947 ft 397 kts 240°
2026-05-05 12:27 54.09087 8.39975 35959 ft 399 kts 240°
2026-05-05 12:27 54.06256 8.31833 35957 ft 400 kts 240°
2026-05-05 12:28 54.03425 8.23702 35963 ft 399 kts 240°
2026-05-05 12:28 54.00588 8.15570 35966 ft 400 kts 240°
2026-05-05 12:29 53.97743 8.07453 35970 ft 400 kts 240°
2026-05-05 12:29 53.94909 7.99395 35971 ft 396 kts 239°
2026-05-05 12:30 53.92082 7.91381 35974 ft 395 kts 239°
2026-05-05 12:30 53.89258 7.83373 35974 ft 397 kts 239°
2026-05-05 12:31 53.86412 7.75336 35971 ft 398 kts 239°
2026-05-05 12:31 53.83570 7.67348 35968 ft 398 kts 239°
2026-05-05 12:32 53.80702 7.59322 35965 ft 398 kts 239°
2026-05-05 12:32 53.77821 7.51301 35965 ft 398 kts 239°
2026-05-05 12:33 53.74944 7.43310 35978 ft 396 kts 239°
2026-05-05 12:33 53.72086 7.35381 35978 ft 394 kts 239°
2026-05-05 12:34 53.69228 7.27477 35982 ft 396 kts 239°
2026-05-05 12:34 53.66345 7.19542 35974 ft 397 kts 238°
2026-05-05 12:35 53.63452 7.11608 35977 ft 397 kts 238°
2026-05-05 12:35 53.60554 7.03673 35977 ft 397 kts 238°
2026-05-05 12:36 53.57669 6.95807 35979 ft 397 kts 238°
2026-05-05 12:36 53.54676 6.87992 35975 ft 398 kts 236°
2026-05-05 12:37 53.51468 6.80469 35974 ft 395 kts 234°
2026-05-05 12:37 53.48222 6.73047 35975 ft 394 kts 234°
2026-05-05 12:38 53.44991 6.65567 35977 ft 396 kts 234°
2026-05-05 12:38 53.41769 6.58050 35979 ft 397 kts 234°
2026-05-05 12:39 53.38546 6.50537 35978 ft 397 kts 234°
2026-05-05 12:39 53.35305 6.43034 35978 ft 397 kts 234°
2026-05-05 12:40 53.32061 6.35550 35968 ft 397 kts 234°
2026-05-05 12:40 53.28816 6.28082 35971 ft 397 kts 234°
2026-05-05 12:41 53.25568 6.20615 35969 ft 397 kts 234°
2026-05-05 12:41 53.22307 6.13163 35978 ft 398 kts 234°
2026-05-05 12:42 53.19026 6.05698 35970 ft 399 kts 234°
2026-05-05 12:42 53.15742 5.98221 35972 ft 400 kts 234°
2026-05-05 12:43 53.12454 5.90747 35973 ft 400 kts 234°
2026-05-05 12:43 53.09161 5.83298 35971 ft 399 kts 233°
2026-05-05 12:44 53.05871 5.75876 35970 ft 399 kts 233°
2026-05-05 12:44 53.02581 5.68467 35969 ft 399 kts 233°
2026-05-05 12:45 52.99295 5.61108 35958 ft 399 kts 233°
2026-05-05 12:45 52.95979 5.53718 35958 ft 400 kts 233°
2026-05-05 12:46 52.92655 5.46304 35960 ft 401 kts 233°
2026-05-05 12:46 52.89312 5.38880 35960 ft 401 kts 233°
2026-05-05 12:47 52.85982 5.31495 35965 ft 401 kts 233°
2026-05-05 12:47 52.82653 5.24136 35967 ft 401 kts 233°
2026-05-05 12:48 52.79305 5.16761 35966 ft 401 kts 233°
2026-05-05 12:48 52.77634 5.13089 35728 ft 400 kts 233°
2026-05-05 12:48 52.75967 5.09426 35184 ft 399 kts 232°
2026-05-05 12:49 52.74299 5.05771 34667 ft 398 kts 232°
2026-05-05 12:49 52.72637 5.02135 34179 ft 396 kts 232°
2026-05-05 12:49 52.70981 4.98516 33962 ft 395 kts 232°
2026-05-05 12:49 52.69324 4.94903 33956 ft 396 kts 232°
2026-05-05 12:50 52.65989 4.87649 33943 ft 398 kts 232°
2026-05-05 12:50 52.62644 4.80378 33955 ft 398 kts 232°
2026-05-05 12:51 52.59288 4.73105 33954 ft 399 kts 232°
2026-05-05 12:51 52.55930 4.65860 33947 ft 399 kts 232°
2026-05-05 12:52 52.52564 4.58607 33949 ft 399 kts 232°
2026-05-05 12:52 52.49213 4.51416 33951 ft 399 kts 232°
2026-05-05 12:53 52.45835 4.44177 33947 ft 399 kts 232°
2026-05-05 12:53 52.42459 4.36971 33952 ft 398 kts 231°
2026-05-05 12:54 52.37401 4.26215 33941 ft 397 kts 231°
2026-05-05 12:55 52.34023 4.19055 33943 ft 398 kts 231°
2026-05-05 12:55 52.30637 4.11903 33958 ft 398 kts 231°
2026-05-05 12:56 52.27245 4.04760 33957 ft 397 kts 231°
2026-05-05 12:56 52.23849 3.97635 33953 ft 397 kts 231°
2026-05-05 12:57 52.20445 3.90510 33961 ft 400 kts 231°
2026-05-05 12:57 52.17014 3.83344 33949 ft 401 kts 231°
2026-05-05 12:58 52.13580 3.76170 33961 ft 402 kts 231°
2026-05-05 12:58 52.10144 3.69011 33975 ft 402 kts 231°
2026-05-05 12:59 52.06708 3.61899 33968 ft 402 kts 231°
2026-05-05 12:59 52.03243 3.54742 33972 ft 402 kts 231°
2026-05-05 13:00 51.98064 3.44059 33964 ft 401 kts 230°
2026-05-05 13:01 51.91097 3.29770 33967 ft 406 kts 231°
2026-05-05 13:01 51.88179 3.23813 33968 ft 406 kts 231°
2026-05-05 13:02 51.85325 3.15955 33952 ft 409 kts 249°
2026-05-05 13:02 51.84263 3.06909 33974 ft 413 kts 262°
2026-05-05 13:03 51.83670 2.97670 33960 ft 413 kts 262°
2026-05-05 13:03 51.83061 2.88435 33965 ft 412 kts 262°
2026-05-05 13:04 51.82444 2.79259 33966 ft 411 kts 261°
2026-05-05 13:04 51.81828 2.70139 33969 ft 411 kts 261°
2026-05-05 13:05 51.81513 2.65529 33782 ft 415 kts 261°
2026-05-05 13:05 51.81191 2.60881 33503 ft 417 kts 261°
2026-05-05 13:05 51.80867 2.56231 33235 ft 416 kts 261°
2026-05-05 13:05 51.80544 2.51590 32957 ft 415 kts 261°
2026-05-05 13:06 51.80222 2.46941 32684 ft 414 kts 261°
2026-05-05 13:06 51.79901 2.42303 32429 ft 413 kts 262°
2026-05-05 13:06 51.79575 2.37657 32168 ft 423 kts 261°
2026-05-05 13:06 51.79238 2.32952 31909 ft 427 kts 261°
2026-05-05 13:07 51.78887 2.28155 31649 ft 428 kts 261°
2026-05-05 13:07 51.78541 2.23407 31380 ft 429 kts 261°
2026-05-05 13:07 51.78205 2.18604 30992 ft 429 kts 262°
2026-05-05 13:07 51.77910 2.13817 30467 ft 427 kts 262°
2026-05-05 13:08 51.77642 2.09054 29938 ft 425 kts 263°
2026-05-05 13:08 51.77383 2.04298 29387 ft 422 kts 262°
2026-05-05 13:08 51.77124 1.99594 28890 ft 420 kts 262°
2026-05-05 13:08 51.76854 1.94908 28397 ft 418 kts 262°
2026-05-05 13:09 51.76579 1.90313 27907 ft 415 kts 263°
2026-05-05 13:09 51.76292 1.85633 27419 ft 412 kts 262°
2026-05-05 13:09 51.76009 1.81093 26947 ft 410 kts 262°
2026-05-05 13:09 51.75724 1.76524 26490 ft 409 kts 262°
2026-05-05 13:10 51.75440 1.71966 26034 ft 407 kts 261°
2026-05-05 13:10 51.75156 1.67424 25590 ft 405 kts 262°
2026-05-05 13:10 51.74874 1.62907 25147 ft 404 kts 262°
2026-05-05 13:10 51.74591 1.58404 24630 ft 404 kts 262°
2026-05-05 13:11 51.74305 1.53880 23998 ft 407 kts 262°
2026-05-05 13:11 51.74016 1.49338 23544 ft 405 kts 262°
2026-05-05 13:11 51.73729 1.44844 23202 ft 399 kts 262°
2026-05-05 13:11 51.73443 1.40420 22809 ft 394 kts 262°
2026-05-05 13:12 51.73155 1.36032 22203 ft 395 kts 263°
2026-05-05 13:12 51.72859 1.31569 21475 ft 401 kts 262°
2026-05-05 13:12 51.72567 1.27163 21298 ft 390 kts 262°
2026-05-05 13:12 51.72281 1.22844 20939 ft 385 kts 263°
2026-05-05 13:13 51.71997 1.18568 20516 ft 382 kts 263°
2026-05-05 13:13 51.71717 1.14385 20093 ft 378 kts 263°
2026-05-05 13:13 51.71434 1.10175 19627 ft 376 kts 263°
2026-05-05 13:13 51.71151 1.05990 19159 ft 374 kts 263°
2026-05-05 13:14 51.70866 1.01834 18765 ft 370 kts 263°
2026-05-05 13:14 51.70589 0.97797 18635 ft 352 kts 263°
2026-05-05 13:14 51.70326 0.94000 18499 ft 330 kts 263°
2026-05-05 13:14 51.70076 0.90396 18128 ft 319 kts 263°
2026-05-05 13:15 51.69831 0.86877 17540 ft 314 kts 263°
2026-05-05 13:15 51.69587 0.83399 16920 ft 311 kts 264°
2026-05-05 13:15 51.69343 0.79951 16322 ft 308 kts 263°
2026-05-05 13:15 51.69101 0.76526 15723 ft 306 kts 264°
2026-05-05 13:16 51.68861 0.73137 15172 ft 304 kts 264°
2026-05-05 13:16 51.68621 0.69753 14835 ft 303 kts 264°
2026-05-05 13:16 51.68381 0.66390 14531 ft 301 kts 264°
2026-05-05 13:16 51.68141 0.63031 14202 ft 301 kts 264°
2026-05-05 13:17 51.67905 0.59726 13892 ft 300 kts 264°
2026-05-05 13:17 51.67665 0.56397 13567 ft 298 kts 264°
2026-05-05 13:17 51.67423 0.53086 13244 ft 296 kts 264°
2026-05-05 13:17 51.67184 0.49805 12934 ft 294 kts 264°
2026-05-05 13:18 51.66945 0.46542 12587 ft 293 kts 264°
2026-05-05 13:18 51.66706 0.43299 12278 ft 291 kts 264°
2026-05-05 13:18 51.66466 0.40073 11951 ft 289 kts 264°
2026-05-05 13:18 51.66225 0.36865 11643 ft 287 kts 263°
2026-05-05 13:19 51.65987 0.33682 11347 ft 286 kts 264°
2026-05-05 13:19 51.65749 0.30508 11047 ft 284 kts 263°
2026-05-05 13:19 51.65513 0.27359 10742 ft 282 kts 263°
2026-05-05 13:19 51.65280 0.24224 10442 ft 281 kts 263°
2026-05-05 13:20 51.65049 0.21110 10150 ft 279 kts 264°
2026-05-05 13:20 51.64817 0.18011 9851 ft 278 kts 264°
2026-05-05 13:20 51.64606 0.14924 9540 ft 276 kts 265°
2026-05-05 13:20 51.64452 0.11843 9212 ft 275 kts 266°
2026-05-05 13:21 51.64303 0.08778 8893 ft 274 kts 266°
2026-05-05 13:21 51.64162 0.05764 8583 ft 273 kts 266°
2026-05-05 13:21 51.64017 0.02686 8258 ft 272 kts 266°
2026-05-05 13:21 51.63866 -0.00341 7959 ft 271 kts 266°
2026-05-05 13:22 51.63720 -0.03317 7656 ft 270 kts 266°
2026-05-05 13:22 51.63565 -0.06331 7354 ft 269 kts 266°
2026-05-05 13:22 51.63414 -0.09324 7071 ft 267 kts 266°
2026-05-05 13:22 51.63267 -0.12291 6987 ft 266 kts 266°
2026-05-05 13:23 51.63116 -0.15278 6997 ft 268 kts 266°
2026-05-05 13:23 51.62967 -0.18263 7001 ft 268 kts 266°
2026-05-05 13:23 51.62822 -0.21252 7002 ft 268 kts 266°
2026-05-05 13:23 51.62671 -0.24247 7003 ft 269 kts 265°
2026-05-05 13:24 51.62520 -0.27237 7004 ft 268 kts 266°
2026-05-05 13:24 51.62367 -0.30227 7003 ft 269 kts 266°
2026-05-05 13:24 51.62207 -0.33220 6975 ft 269 kts 265°
2026-05-05 13:24 51.62053 -0.36210 6974 ft 268 kts 266°
2026-05-05 13:25 51.61901 -0.39206 6970 ft 268 kts 266°
2026-05-05 13:25 51.61750 -0.42182 6970 ft 263 kts 266°
2026-05-05 13:25 51.61606 -0.45037 6970 ft 249 kts 266°
2026-05-05 13:25 51.61465 -0.47799 6972 ft 247 kts 266°
2026-05-05 13:26 51.61318 -0.50550 6976 ft 246 kts 266°
2026-05-05 13:26 51.61175 -0.53295 6975 ft 247 kts 266°
2026-05-05 13:26 51.61029 -0.56045 6973 ft 247 kts 266°
2026-05-05 13:26 51.60746 -0.58769 6974 ft 248 kts 254°
2026-05-05 13:27 51.60210 -0.61410 6970 ft 247 kts 252°
2026-05-05 13:27 51.59635 -0.64023 6971 ft 248 kts 251°
2026-05-05 13:27 51.59061 -0.66623 6969 ft 243 kts 251°
2026-05-05 13:27 51.58516 -0.69093 6846 ft 233 kts 251°
2026-05-05 13:28 51.57976 -0.71508 6665 ft 226 kts 251°
2026-05-05 13:28 51.57449 -0.73867 6438 ft 222 kts 251°
2026-05-05 13:28 51.56936 -0.76149 6350 ft 210 kts 251°
2026-05-05 13:28 51.56452 -0.78307 6158 ft 203 kts 251°
2026-05-05 13:29 51.55972 -0.80443 5860 ft 202 kts 251°
2026-05-05 13:29 51.55494 -0.82557 5538 ft 202 kts 251°
2026-05-05 13:29 51.54945 -0.84635 5246 ft 202 kts 236°
2026-05-05 13:29 51.53861 -0.85986 4980 ft 199 kts 197°
2026-05-05 13:30 51.52508 -0.86349 4632 ft 197 kts 183°
2026-05-05 13:30 51.51128 -0.86482 4197 ft 200 kts 176°
2026-05-05 13:30 51.49848 -0.85810 3785 ft 192 kts 138°
2026-05-05 13:30 51.48970 -0.84248 3426 ft 188 kts 123°
2026-05-05 13:31 51.48213 -0.82545 3049 ft 187 kts 121°
2026-05-05 13:31 51.47666 -0.80720 3007 ft 184 kts 100°
2026-05-05 13:31 51.47584 -0.78664 3006 ft 183 kts 86°
2026-05-05 13:31 51.47599 -0.76653 3008 ft 183 kts 86°
2026-05-05 13:32 51.47612 -0.74608 3004 ft 182 kts 86°
2026-05-05 13:32 51.47625 -0.72571 2973 ft 184 kts 87°
2026-05-05 13:32 51.47636 -0.70584 2805 ft 171 kts 85°
2026-05-05 13:32 51.47647 -0.68721 2595 ft 164 kts 84°
2026-05-05 13:33 51.47657 -0.66920 2409 ft 161 kts 85°
2026-05-05 13:33 51.47668 -0.65115 2179 ft 162 kts 86°
2026-05-05 13:33 51.47678 -0.63313 1957 ft 161 kts 87°
2026-05-05 13:33 51.47687 -0.61522 1736 ft 160 kts 86°
2026-05-05 13:34 51.47697 -0.59735 1520 ft 160 kts 86°
2026-05-05 13:34 51.47705 -0.57961 1301 ft 158 kts 85°
2026-05-05 13:34 51.47713 -0.56221 1070 ft 150 kts 84°
2026-05-05 13:34 51.47721 -0.54594 869 ft 143 kts 88°
2026-05-05 13:35 51.47733 -0.53010 683 ft 142 kts 86°
2026-05-05 13:35 51.47735 -0.51467 510 ft 139 kts 89°
2026-05-05 13:35 51.47741 -0.49920 324 ft 138 kts 85°
2026-05-05 13:35 51.47747 -0.48367 114 ft 137 kts 87°
2026-05-05 13:36 51.47755 -0.47034 90 ft 89 kts 90°
2026-05-05 13:36 51.47756 -0.46454 92 ft 32 kts 89°
2026-05-05 13:36 51.47735 -0.46185 89 ft 19 kts 133°
2026-05-05 13:36 51.47642 -0.46079 86 ft 13 kts 144°
2026-05-05 13:37 51.47596 -0.46109 89 ft 4 kts 265°
2026-05-05 13:37 51.47595 -0.46175 91 ft 10 kts 270°
2026-05-05 13:37 51.47594 -0.46355 89 ft 20 kts 269°
2026-05-05 13:37 51.47593 -0.46583 90 ft 22 kts 270°
2026-05-05 13:38 51.47590 -0.46826 91 ft 22 kts 263°
2026-05-05 13:38 51.47583 -0.47095 91 ft 27 kts 269°
2026-05-05 13:38 51.47583 -0.47399 87 ft 27 kts 270°
2026-05-05 13:38 51.47583 -0.47689 86 ft 25 kts 270°
2026-05-05 13:39 51.47580 -0.47936 89 ft 21 kts 268°
2026-05-05 13:39 51.47580 -0.48144 91 ft 16 kts 270°
2026-05-05 13:39 51.47579 -0.48285 91 ft 11 kts 269°
2026-05-05 13:39 51.47578 -0.48449 91 ft 20 kts 270°
2026-05-05 13:40 51.47578 -0.48693 90 ft 23 kts 270°
2026-05-05 13:40 51.47574 -0.48916 87 ft 17 kts 256°
2026-05-05 13:40 51.47492 -0.48902 86 ft 11 kts 126°
2026-05-05 13:40 51.47433 -0.48894 85 ft 6 kts 181°
2026-05-05 13:41 51.47405 -0.48894 85 ft 2 kts 179°
2026-05-05 13:41 51.47403 -0.48894 85 ft 0 kts 179°